{"data":{"norad_id":38771,"epoch":"2026-09-20T03:30:47.537856Z","epoch_age_seconds":44966,"freshness":"FRESH","line1":"1 38771U 12049A   26263.14638354  .00000037  00000+0  36552-4 0  9999","line2":"2 38771  98.6407 312.7067 0003384  80.0627 280.0932 14.21459948726757","mean_motion":14.21459948,"eccentricity":0.0003384,"inclination_deg":98.6407,"raan_deg":312.7067,"arg_perigee_deg":80.0627,"mean_anomaly_deg":280.0932,"bstar":3.6552e-5,"rev_number":72675,"period_min":101.30429647533,"perigee_km":817.98359928395,"apogee_km":822.85558238462,"semimajor_km":7198.5565908343,"source":"CELESTRAK","updated_at":"2026-09-20T09:00:34.368628Z"}}